N4CVG Weather Reports


Display with metric or nautical units.
time (UTC)temp
F
wind
direction
speed
MPH
gust
MPH
rain 1hr
in
rain 24hr
in
rain mn
in
humidity
%
barometer
mb
20260505093003 62 135 4.0 11.0 0.00 0.25 0.00 65 1009.0
20260505092002 62 112 4.0 10.0 0.00 0.25 0.00 65 1008.9
20260505091002 62 144 4.0 14.0 0.00 0.25 0.00 65 1008.8
20260505090023 62 130 4.0 10.0 0.00 0.25 0.00 66 1008.7
20260505085023 62 138 7.0 16.0 0.00 0.25 0.00 66 1008.6
20260505084002 62 122 5.0 13.0 0.00 0.25 0.00 66 1008.6
20260505083002 62 139 6.0 14.0 0.00 0.25 0.00 66 1008.6
20260505082002 62 126 6.0 11.0 0.00 0.25 0.00 66 1008.6
20260505081001 62 102 6.0 10.0 0.00 0.25 0.00 66 1008.6
20260505080024 62 115 4.0 9.0 0.00 0.25 0.00 66 1008.5
20260505075002 63 117 6.0 12.0 0.00 0.25 0.00 66 1008.4
20260505074003 62 122 6.0 13.0 0.00 0.25 0.00 66 1008.4
20260505073003 62 106 6.0 13.0 0.00 0.25 0.00 67 1008.3
20260505072002 63 103 6.0 13.0 0.00 0.25 0.00 66 1008.4
20260505071003 63 118 6.0 10.0 0.00 0.25 0.00 66 1008.4
20260505070002 63 129 5.0 9.0 0.00 0.25 0.00 66 1008.5
20260505065025 63 119 5.0 9.0 0.00 0.26 0.00 66 1008.5
20260505064002 63 110 4.0 9.0 0.00 0.26 0.00 65 1008.5
20260505063002 63 121 5.0 9.0 0.00 0.26 0.00 65 1008.5
20260505062002 64 94 5.0 11.0 0.00 0.26 0.00 65 1008.5
20260505061002 64 127 4.0 12.0 0.00 0.26 0.00 64 1008.5
20260505060003 64 107 5.0 9.0 0.00 0.26 0.00 64 1008.6
20260505055023 65 120 4.0 11.0 0.00 0.26 0.00 63 1008.8
20260505054002 65 108 4.0 8.0 0.00 0.26 0.00 62 1008.8
20260505053023 65 106 4.0 8.0 0.00 0.26 0.00 63 1008.8
20260505052002 66 115 3.0 8.0 0.00 0.26 0.00 62 1008.8
20260505051002 66 133 3.0 9.0 0.00 0.26 0.00 61 1008.8
20260505041002 68 129 5.0 11.0 0.00 0.26 0.00 59 1008.6
20260505040002 68 132 5.0 9.0 0.00 0.26 0.26 58 1008.6
20260505035003 68 134 4.0 9.0 0.00 0.26 0.26 59 1008.4
20260505034002 68 136 3.0 8.0 0.00 0.26 0.26 58 1008.3
20260505033003 68 133 3.0 10.0 0.00 0.26 0.26 58 1008.2
20260505032002 68 132 3.0 10.0 0.00 0.26 0.26 59 1008.1
20260505031002 68 122 3.0 8.0 0.00 0.26 0.26 59 1008.0
20260505030003 68 130 5.0 10.0 0.00 0.26 0.26 59 1007.9
20260505025002 68 105 5.0 10.0 0.00 0.26 0.26 59 1007.9
20260505024003 68 128 5.0 9.0 0.00 0.26 0.26 58 1007.7
20260505023002 69 125 4.0 8.0 0.00 0.26 0.26 58 1007.6
20260505022003 69 124 4.0 8.0 0.00 0.26 0.26 58 1007.5
20260505021001 69 127 5.0 10.0 0.00 0.26 0.26 57 1007.4
20260505020003 69 102 3.0 9.0 0.00 0.26 0.26 58 1007.2
20260505015002 69 122 4.0 7.0 0.00 0.26 0.26 57 1007.2
20260505014002 69 93 5.0 8.0 0.00 0.26 0.26 56 1007.3
20260505013002 69 104 4.0 7.0 0.00 0.26 0.26 56 1007.2
20260505012002 70 106 2.0 5.0 0.00 0.26 0.26 56 1007.2
20260505011002 70 104 3.0 8.0 0.00 0.26 0.26 56 1007.1
20260505010002 70 117 4.0 8.0 0.00 0.26 0.26 57 1007.1
20260505005023 71 111 3.0 9.0 0.00 0.26 0.26 57 1007.2
20260505004003 71 73 4.0 8.0 0.00 0.26 0.26 56 1007.1
20260505003003 71 125 2.0 6.0 0.00 0.26 0.26 55 1007.3
20260505002002 72 143 2.0 7.0 0.00 0.26 0.26 53 1007.3
20260505000046 73 138 4.0 11.0 0.00 0.26 0.26 52 1007.5
20260504235002 74 161 4.0 15.0 0.00 0.26 0.26 52 1007.6
20260504234003 74 150 3.0 12.0 0.00 0.26 0.26 52 1007.7
20260504233003 74 160 5.0 11.0 0.00 0.26 0.26 51 1007.8
20260504232003 74 128 3.0 13.0 0.00 0.26 0.26 51 1007.8
20260504231003 75 138 5.0 10.0 0.00 0.26 0.26 49 1007.9
20260504230003 75 137 5.0 15.0 0.00 0.26 0.26 48 1008.0
20260504225023 76 159 7.0 11.0 0.00 0.26 0.26 47 1008.0
20260504224002 76 173 3.0 14.0 0.00 0.26 0.26 49 1008.1
20260504223002 77 147 5.0 10.0 0.00 0.26 0.26 48 1008.0
20260504222003 76 156 4.0 13.0 0.00 0.26 0.26 50 1008.1
20260504221002 76 211 6.0 15.0 0.00 0.26 0.26 48 1008.1
20260504220002 77 196 6.0 15.0 0.00 0.26 0.26 47 1008.3
20260504215003 76 164 4.0 16.0 0.00 0.26 0.26 49 1008.3
20260504214002 76 193 5.0 16.0 0.00 0.26 0.26 49 1008.3
20260504213002 77 220 7.0 17.0 0.00 0.26 0.26 46 1008.3
20260504212024 77 219 3.0 8.0 0.00 0.26 0.26 46 1008.3
20260504211002 77 239 2.0 12.0 0.00 0.26 0.26 50 1008.3
20260504210003 76 218 6.0 18.0 0.00 0.26 0.26 47 1008.4
20260504205002 77 158 8.0 18.0 0.00 0.26 0.26 50 1008.4
20260504204023 76 181 3.0 11.0 0.00 0.26 0.26 53 1008.5
20260504203002 76 163 4.0 16.0 0.00 0.26 0.26 50 1008.5
20260504202002 77 221 3.0 8.0 0.00 0.26 0.26 52 1008.7
20260504201002 76 227 4.0 10.0 0.00 0.26 0.26 53 1008.8
20260504200002 76 182 6.0 13.0 0.00 0.26 0.26 51 1009.1
20260504195003 76 211 4.0 11.0 0.00 0.26 0.26 51 1009.2
20260504194002 75 210 4.0 17.0 0.00 0.26 0.26 53 1009.3
20260504193003 75 155 7.0 16.0 0.00 0.26 0.26 54 1009.4
20260504192002 74 165 6.0 17.0 0.00 0.26 0.26 55 1009.7
20260504191003 74 152 9.0 15.0 0.00 0.26 0.26 56 1009.8
20260504190003 74 150 6.0 16.0 0.00 0.26 0.26 56 1009.6
20260504185002 74 225 3.0 16.0 0.00 0.26 0.26 57 1009.7
20260504184002 73 166 4.0 21.0 0.00 0.26 0.26 59 1009.7
20260504183002 73 149 8.0 17.0 0.00 0.26 0.26 57 1009.8
20260504182002 73 172 7.0 14.0 0.00 0.26 0.26 57 1009.9
20260504181003 72 283 4.0 16.0 0.00 0.26 0.26 61 1009.8
20260504180003 71 342 10.0 21.0 0.00 0.26 0.26 58 1009.8
20260504175002 71 342 9.0 17.0 0.00 0.26 0.26 62 1009.9
20260504174003 71 141 9.0 20.0 0.00 0.26 0.26 61 1009.9
20260504173002 70 342 9.0 16.0 0.00 0.26 0.26 62 1010.0
20260504172002 70 342 8.0 15.0 0.00 0.26 0.26 63 1010.1
20260504171003 69 342 8.0 18.0 0.00 0.26 0.26 62 1010.3
20260504151024 58 342 7.0 12.0 0.00 0.26 0.26 77 1011.9
20260504141003 54 342 3.0 7.0 0.00 0.26 0.26 85 1012.9